This demonstration page uses our WeatherBlox Daily Observations layout. Learn more.

Left ArrowRight Arrow

Hourly Observations for August 20, 2021

Temp ( °F °C ) Dew Point ( °F °C ) Humidity (%) Winds ( mph kmh ) Pressure ( in mb ) Visibility ( mi km ) Precip ( " mm )
12:15 am 00:15 Partly Cloudy 73 23 70 21 89 89 SE 14 22 29.75 1008 10 16 0.00 0.00
12:35 am 00:35 Mostly Cloudy 74 23.5 70 21.3 88 88 SSE 12 19 29.75 1007 10 16 0.00 0.00
12:55 am 00:55 Cloudy 74 23.1 68 20 83 83 NNW 13 20 29.80 1009 10 16 0.00 0.00
1:15 am 01:15 Cloudy with Rain 66 19 63 17.1 89 89 NNW 8 13 29.83 1010 7 11 0.00 0.00
1:35 am 01:35 Cloudy with Heavy Rain 65 18.5 64 17.5 94 94 N 15 24 29.82 1010 4 6 0.09 2.29
1:55 am 01:55 Cloudy 65 18.1 64 17.5 96 96 N 6 9 29.83 1010 2 3 0.44 11.18
2:15 am 02:15 Cloudy with Strong Thunderstorms 65 18.1 64 17.5 96 96 NE 8 13 29.82 1010 3 4 0.34 8.64
2:35 am 02:35 Cloudy 65 18.1 64 17.6 97 97 NE 8 13 29.80 1009 3 5 0.60 15.24
2:55 am 02:55 Cloudy with Nearby Thunderstorms 65 18.2 64 17.7 97 97 NE 8 13 29.80 1009 7 11 0.67 17.02
3:15 am 03:15 Cloudy with Light Rain 65 18.2 64 17.7 97 97 E 12 19 29.78 1009 7 11 0.02 0.51
3:35 am 03:35 Cloudy 65 18.2 64 17.7 97 97 ESE 9 15 29.77 1008 10 16 0.02 0.51
3:55 am 03:55 Cloudy 65 18.3 64 17.8 97 97 ENE 10 17 29.77 1008 10 16 0.02 0.51
4:15 am 04:15 Cloudy 65 18.3 64 17.8 97 97 ENE 12 19 29.78 1009 10 16 0.00 0.00
4:35 am 04:35 Cloudy with Light Rain 65 18.3 64 17.8 97 97 E 10 17 29.77 1008 10 16 0.00 0.00
4:55 am 04:55 Cloudy with Drizzle 65 18.4 64 17.8 96 96 E 15 24 29.76 1008 10 16 0.00 0.00
5:15 am 05:15 Cloudy 65 18.5 64 17.8 96 96 E 13 20 29.75 1007 10 16 0.00 0.00
5:35 am 05:35 Cloudy 65 18.5 64 17.8 96 96 ESE 12 19 29.74 1007 10 16 0.00 0.00
5:55 am 05:55 Mostly Cloudy 65 18.3 64 17.6 96 96 E 15 24 29.72 1006 10 16 0.00 0.00
6:15 am 06:15 Cloudy 65 18.5 64 17.7 95 95 E 14 22 29.72 1006 10 16 0.00 0.00
6:35 am 06:35 Cloudy 65 18.5 64 17.7 95 95 E 12 19 29.72 1006 10 16 0.00 0.00
6:55 am 06:55 Cloudy 65 18.5 64 17.7 95 95 E 13 20 29.71 1006 10 16 0.00 0.00
7:15 am 07:15 Cloudy 66 18.8 64 17.8 94 94 E 9 15 29.72 1006 10 16 0.00 0.00
7:35 am 07:35 Mostly Cloudy 66 19 64 17.7 92 92 E 14 22 29.70 1006 10 16 0.00 0.00
7:55 am 07:55 Partly Cloudy 66 19 64 17.6 92 92 E 15 24 29.70 1006 10 16 0.00 0.00
8:15 am 08:15 Mostly Cloudy 66 19.1 64 17.7 92 92 ESE 12 19 29.70 1006 10 16 0.00 0.00
8:35 am 08:35 Cloudy 67 19.5 64 18 91 91 ESE 13 20 29.69 1005 10 16 0.00 0.00
8:55 am 08:55 Cloudy 68 20 65 18.4 91 91 E 12 19 29.68 1005 10 16 0.00 0.00
9:15 am 09:15 Cloudy 70 21.3 67 19.4 89 89 ESE 9 15 29.67 1005 10 16 0.00 0.00
9:35 am 09:35 Cloudy 71 21.6 67 19.3 87 87 SE 12 19 29.65 1004 10 16 0.00 0.00
9:55 am 09:55 Cloudy 72 22 68 19.9 88 88 SE 9 15 29.65 1004 10 16 0.00 0.00
10:15 am 10:15 Cloudy 72 22.2 68 20 87 87 SW 3 6 29.69 1005 10 16 0.00 0.00
10:35 am 10:35 Cloudy 72 22 68 20.2 90 90 W 5 7 29.70 1006 10 16 0.00 0.00
10:55 am 10:55 Cloudy 72 22.3 69 20.5 90 90 SSW 3 6 29.70 1006 10 16 0.00 0.00
11:15 am 11:15 Cloudy 74 23.5 69 20.8 85 85 SSE 8 13 29.67 1005 10 16 0.00 0.00
11:35 am 11:35 Mostly Cloudy 76 24.4 71 21.5 84 84 SSE 8 13 29.66 1004 10 16 0.00 0.00
11:55 am 11:55 Mostly Cloudy 77 25.2 71 21.5 80 80 SSW 5 7 29.67 1005 10 16 0.00 0.00
12:15 pm 12:15 Cloudy 78 25.7 71 21.4 77 77 WSW 8 13 29.66 1004 10 16 0.00 0.00
12:35 pm 12:35 Cloudy 78 25.5 70 21 76 76 WNW 20 31 29.67 1005 10 16 0.00 0.00
12:55 pm 12:55 Cloudy 69 20.7 65 18.3 86 86 NW 12 19 29.74 1007 10 16 0.00 0.00
1:15 pm 13:15 Cloudy 69 20.3 63 17.4 84 84 NNW 13 20 29.76 1008 10 16 0.00 0.00
1:35 pm 13:35 Cloudy 68 20.2 63 17.3 84 84 NNW 12 19 29.76 1008 10 16 0.00 0.00
1:55 pm 13:55 Cloudy 68 20 62 16.5 80 80 NNW 12 19 29.76 1008 10 16 0.00 0.00
2:15 pm 14:15 Cloudy 69 20.7 62 16.5 77 77 NNW 12 19 29.75 1008 10 16 0.00 0.00
2:35 pm 14:35 Cloudy 71 21.6 62 16.5 73 73 N 12 19 29.74 1007 10 16 0.00 0.00
2:55 pm 14:55 Cloudy 72 22.2 62 16.4 70 70 N 10 17 29.74 1007 10 16 0.00 0.00
3:15 pm 15:15 Mostly Cloudy 73 22.9 62 16.9 69 69 NNW 8 13 29.73 1007 10 16 0.00 0.00
3:35 pm 15:35 Cloudy 76 24.3 62 16.8 63 63 N 7 11 29.72 1007 10 16 0.00 0.00
3:55 pm 15:55 Cloudy 76 24.2 61 16.2 61 61 NNW 8 13 29.71 1006 10 16 0.00 0.00
4:15 pm 16:15 Mostly Cloudy 77 24.8 62 16.7 61 61 N 7 11 29.72 1006 10 16 0.00 0.00
4:35 pm 16:35 Partly Cloudy 77 25.1 62 16.9 60 60 NNW 3 6 29.71 1006 10 16 0.00 0.00
4:55 pm 16:55 Sunny 78 25.7 63 17.1 59 59 NNW 3 6 29.70 1006 10 16 0.00 0.00
5:15 pm 17:15 Sunny 79 26.3 60 15.6 52 52 NW 8 13 29.70 1006 10 16 0.00 0.00
5:35 pm 17:35 Sunny 80 26.5 58 14.5 48 48 NW 10 17 29.70 1006 10 16 0.00 0.00
5:55 pm 17:55 Sunny 79 26.3 59 14.8 49 49 NW 8 13 29.70 1006 10 16 0.00 0.00
6:15 pm 18:15 Sunny 79 26.2 60 15.4 51 51 NW 5 7 29.70 1006 10 16 0.00 0.00
6:35 pm 18:35 Sunny 79 26 61 16 54 54 NW 5 7 29.70 1006 10 16 0.00 0.00
6:55 pm 18:55 Sunny 78 25.7 62 16.7 58 58 NW 5 7 29.69 1005 10 16 0.00 0.00
7:15 pm 19:15 Sunny 77 25.2 62 16.5 59 59 WNW 6 9 29.70 1006 10 16 0.00 0.00
7:35 pm 19:35 Sunny 76 24.5 61 15.9 59 59 WNW 6 9 29.70 1006 10 16 0.00 0.00
7:55 pm 19:55 Sunny 74 23.6 59 15.1 59 59 WNW 6 9 29.71 1006 10 16 0.00 0.00
8:15 pm 20:15 Sunny 72 22.3 59 15 63 63 W 5 7 29.73 1007 10 16 0.00 0.00
8:35 pm 20:35 Clear 70 20.9 59 15.2 70 70 W 7 11 29.75 1007 10 16 0.00 0.00
8:55 pm 20:55 Clear 69 20.7 57 14.1 66 66 W 8 13 29.75 1008 10 16 0.00 0.00
9:15 pm 21:15 Clear 69 20.6 56 13.6 64 64 W 7 11 29.77 1008 10 16 0.00 0.00
9:35 pm 21:35 Clear 67 19.7 57 13.7 68 68 Calm 29.78 1008 10 16 0.00 0.00
9:55 pm 21:55 Clear 66 18.9 57 14 73 73 Calm 29.81 1009 10 16 0.00 0.00
10:15 pm 22:15 Clear 66 18.8 57 13.7 72 72 NNW 3 6 29.83 1010 10 16 0.00 0.00
10:35 pm 22:35 Clear 66 19 57 13.8 72 72 WNW 3 6 29.83 1010 10 16 0.00 0.00
10:55 pm 22:55 Clear 64 17.6 58 14.3 81 81 WNW 3 6 29.85 1011 10 16 0.00 0.00
11:15 pm 23:15 Clear 63 17.2 57 13.7 80 80 WNW 5 7 29.86 1011 10 16 0.00 0.00
11:35 pm 23:35 Clear 63 17.1 56 13.5 80 80 WNW 5 7 29.87 1012 10 16 0.00 0.00
11:55 pm 23:55 Clear 62 16.9 56 13.3 79 79 WNW 7 11 29.87 1012 10 16 0.00 0.00

Powered by AerisWeather